Wind_Speed
33 32 31 30 29 28 27 25 23 22 24 24 22 22 25 27 28 28 27 25 24 22 21 21 21 21 23 24 26 27 27 27 27 27 27 28 29 30
35 34 33 32 31 30 28 26 24 22 23 25 23 21 23 25 27 27 26 24 24 21 21 22 22 23 25 26 27 28 28 28 28 27 28 28 28 29
39 37 35 33 32 31 29 27 25 23 22 24 23 21 22 24 27 27 27 24 23 22 22 22 23 24 25 26 26 27 27 27 27 27 27 28 28 29
44 41 38 36 34 32 30 28 26 24 22 22 22 20 20 23 26 26 26 25 25 24 24 23 24 24 24 24 24 25 25 26 26 26 27 27 28 28
49 46 42 39 36 34 31 29 26 24 22 21 21 20 19 21 24 26 27 26 25 25 25 24 23 23 23 23 23 23 23 24 24 25 25 25 25 26
53 50 46 43 39 36 33 30 27 24 22 21 20 18 17 19 22 24 25 25 25 25 25 25 24 23 23 23 23 23 22 22 22 23 23 24 24 24
54 52 49 46 42 38 35 31 29 26 23 20 19 17 15 16 18 21 22 23 23 24 24 24 24 23 23 22 22 22 22 22 22 22 22 22 21 21
55 53 51 48 45 41 37 34 31 27 24 21 18 16 14 14 16 19 21 22 22 22 22 23 23 23 23 22 21 21 22 22 22 21 20 19 18 18
57 54 52 49 47 43 39 36 32 29 25 21 18 16 14 13 15 17 18 20 21 22 22 22 22 22 22 22 22 22 21 21 20 19 18 17 16 16
61 56 53 51 48 45 41 38 34 30 26 22 19 16 14 13 14 16 17 18 19 20 21 22 23 23 22 22 22 21 20 19 18 17 16 16 16 15
64 59 55 52 50 47 44 40 37 32 27 23 20 17 15 14 14 15 16 16 18 19 19 20 20 21 22 22 21 20 19 18 17 17 16 16 15 15
62 61 57 53 51 48 46 43 39 34 29 25 22 18 16 15 15 15 15 16 16 16 16 17 18 20 21 22 21 19 18 17 16 15 15 14 14 14
57 58 56 53 50 48 47 45 41 36 31 26 22 19 17 16 16 15 15 14 15 15 16 18 18 19 20 19 19 17 16 15 14 14 14 13 13 14
51 53 52 51 49 48 47 46 43 38 33 28 24 20 18 16 15 14 14 14 14 15 16 18 19 20 19 18 17 16 16 15 14 13 13 14 14 15
45 51 51 49 49 48 47 45 42 38 34 29 25 21 19 16 15 14 15 15 16 16 17 17 18 18 18 17 17 17 16 15 14 14 14 16 17 19
41 49 48 47 46 47 47 45 42 38 34 30 26 22 19 17 16 16 16 17 18 18 19 19 19 19 18 18 18 17 16 16 16 16 18 20 21 23
38 47 48 47 46 46 46 44 41 38 34 30 26 23 20 19 18 18 18 18 18 19 20 21 21 20 19 19 18 18 17 17 19 20 22 24 26 27
35 43 48 47 47 46 45 43 40 37 33 30 27 24 22 21 20 20 20 20 21 21 22 23 23 22 21 20 20 19 19 21 22 24 25 27 29 30
35 42 46 48 46 46 45 43 40 36 33 31 28 25 24 23 22 22 22 22 23 24 24 24 24 23 22 22 21 21 22 23 25 26 28 29 30 31
33 42 44 46 45 44 43 41 39 36 34 31 28 26 25 24 24 24 25 25 25 25 25 25 24 24 23 22 22 22 24 25 26 28 29 30 30 30
31 40 42 43 44 43 41 39 37 35 33 31 29 27 26 26 26 27 27 26 25 25 25 25 24 24 23 22 23 23 25 26 27 28 28 28 28 28
30 36 39 40 40 39 39 37 36 34 32 30 29 28 27 28 28 28 27 26 25 25 25 24 24 23 23 23 24 25 26 26 27 27 27 27 27 28
30 34 35 37 37 37 36 35 33 32 31 30 29 28 28 29 29 28 27 25 25 24 23 23 23 23 23 24 25 26 26 27 27 27 27 27 28 29
Wind_Direction
256 260 263 267 272 277 280 283 286 290 292 290 283 267 256 249 245 241 237 238 237 235 233 232 233 235 236 239 243 246 249 249 251 251 251 251 250 249
256 258 261 264 267 272 277 279 283 287 291 289 285 271 257 249 243 241 237 234 231 231 232 232 233 237 241 244 247 249 251 252 252 251 251 251 252 252
256 258 259 262 264 268 271 275 279 284 289 288 285 273 258 248 242 241 238 236 231 230 232 235 237 240 244 248 250 252 254 253 253 253 252 253 254 253
255 257 258 259 261 263 266 269 274 280 286 286 284 276 259 247 240 237 236 236 234 233 235 238 240 244 248 251 252 253 254 254 254 254 254 254 254 255
251 253 255 256 258 258 260 263 268 275 282 284 282 277 262 248 240 236 234 234 236 236 238 239 244 248 250 251 253 252 252 252 251 252 255 256 258 258
247 249 251 252 254 254 254 257 261 269 276 281 280 277 265 251 242 236 233 233 235 237 239 242 247 250 250 252 251 249 248 250 251 252 254 256 259 259
243 244 246 247 248 249 250 251 254 262 270 275 278 276 267 251 243 237 234 234 239 239 241 244 247 249 250 249 250 247 246 247 249 251 253 254 256 257
240 240 241 243 244 245 246 246 249 256 263 269 275 274 262 251 244 238 237 238 242 240 242 243 248 250 248 246 245 243 244 247 247 248 247 248 249 251
236 236 237 238 239 240 242 242 245 250 257 264 270 268 260 251 244 240 239 240 240 242 244 246 248 246 244 242 241 240 242 242 241 241 240 241 244 247
232 232 233 234 235 236 238 240 242 245 251 258 262 262 256 247 242 239 238 238 240 246 245 245 244 244 245 240 235 234 234 233 234 235 237 239 242 245
227 227 229 231 232 233 236 237 238 240 245 253 255 255 251 243 242 241 241 240 242 244 245 244 241 239 237 230 226 226 226 227 229 232 234 237 240 242
223 223 225 228 229 232 233 234 235 237 242 246 249 247 244 240 238 241 241 241 241 245 245 242 238 235 230 224 219 220 224 226 227 229 232 235 238 241
216 217 219 224 226 229 230 230 231 233 237 240 242 241 237 234 234 236 237 238 237 238 239 235 230 225 221 218 215 217 219 220 222 224 229 236 242 248
210 208 210 215 220 224 225 226 228 230 232 235 237 236 233 231 230 230 229 230 230 231 232 227 224 219 215 215 215 213 214 216 220 226 235 244 252 259
204 200 203 208 213 218 220 221 224 226 227 230 232 232 230 229 226 224 223 221 222 224 224 216 211 208 208 210 210 210 213 219 227 237 247 256 262 268
201 194 196 201 208 213 216 217 219 220 222 225 228 230 228 225 221 219 220 218 215 214 211 207 204 203 204 207 211 216 222 230 240 251 259 265 270 275
202 194 192 195 201 208 212 213 214 216 218 222 226 226 224 221 218 217 215 211 207 206 204 203 202 204 207 211 218 224 232 242 252 260 266 272 276 279
203 196 192 193 198 203 208 211 212 212 214 220 223 223 221 217 214 212 210 207 206 205 203 202 204 207 212 218 226 235 244 252 259 266 272 276 279 281
204 196 192 191 194 200 205 208 209 211 214 218 221 220 218 214 211 209 208 207 205 205 205 206 208 213 219 226 234 243 253 261 267 272 276 279 281 283
204 196 190 190 192 196 200 202 206 209 212 215 217 216 213 209 206 205 206 206 205 206 209 211 214 220 227 236 244 253 261 267 272 276 280 282 283 285
199 194 188 187 189 192 195 198 202 205 208 210 211 210 208 205 203 203 203 205 206 209 213 216 221 229 237 245 253 261 267 272 276 279 281 282 283 285
187 186 184 184 186 188 191 195 198 201 204 205 205 205 204 201 200 200 202 205 209 213 217 222 229 237 245 253 261 268 273 275 277 279 280 283 285 287
174 175 176 179 182 185 189 192 194 196 198 200 201 201 200 198 197 200 203 208 213 218 222 228 236 244 251 259 266 271 273 275 276 279 281 284 286 288
Height
5764 5766 5768 5769 5770 5771 5772 5772 5772 5769 5766 5762 5761 5761 5760 5761 5763 5765 5767 5770 5772 5775 5777 5780 5783 5786 5789 5792 5795 5798 5800 5802 5804 5806 5808 5809 5811 5812
5754 5756 5758 5760 5762 5763 5763 5764 5764 5763 5760 5756 5755 5754 5754 5755 5757 5758 5761 5764 5767 5769 5772 5775 5778 5781 5784 5786 5789 5791 5793 5795 5796 5798 5800 5802 5803 5805
5743 5746 5749 5751 5753 5754 5755 5756 5756 5756 5754 5750 5749 5748 5748 5749 5750 5752 5755 5758 5761 5764 5767 5770 5773 5775 5778 5780 5782 5783 5785 5787 5789 5791 5792 5794 5796 5797
5732 5735 5739 5741 5744 5745 5747 5747 5748 5748 5747 5745 5743 5742 5742 5743 5744 5746 5750 5752 5756 5759 5762 5764 5767 5769 5771 5773 5775 5777 5779 5780 5782 5784 5785 5787 5788 5789
5719 5723 5727 5731 5734 5736 5738 5739 5740 5741 5741 5739 5737 5736 5736 5736 5738 5740 5743 5747 5750 5753 5756 5758 5761 5763 5765 5767 5769 5770 5772 5774 5776 5777 5778 5780 5781 5782
5704 5710 5715 5720 5724 5727 5729 5731 5733 5734 5734 5733 5732 5730 5730 5730 5732 5734 5737 5741 5744 5747 5750 5752 5755 5757 5759 5761 5763 5764 5766 5768 5769 5771 5772 5773 5774 5775
5689 5696 5702 5707 5712 5717 5720 5722 5725 5727 5728 5727 5726 5725 5724 5725 5726 5729 5732 5735 5738 5740 5743 5746 5749 5751 5753 5755 5757 5758 5760 5762 5763 5765 5766 5767 5768 5769
5673 5681 5688 5694 5701 5706 5710 5713 5717 5719 5721 5721 5721 5720 5719 5720 5721 5723 5726 5729 5732 5735 5737 5739 5742 5744 5747 5749 5750 5752 5754 5756 5757 5758 5760 5761 5762 5764
5656 5665 5674 5681 5688 5694 5699 5704 5708 5711 5714 5715 5715 5715 5715 5715 5716 5718 5720 5723 5726 5728 5730 5733 5735 5738 5740 5742 5744 5747 5748 5750 5752 5753 5755 5756 5758 5759
5638 5649 5659 5667 5675 5682 5689 5694 5699 5703 5706 5708 5709 5709 5709 5710 5711 5713 5715 5717 5719 5722 5724 5726 5729 5732 5734 5736 5739 5741 5743 5745 5747 5749 5751 5752 5753 5755
5620 5633 5644 5653 5662 5670 5678 5684 5690 5695 5699 5701 5703 5704 5704 5705 5706 5708 5710 5712 5714 5716 5719 5720 5723 5725 5728 5731 5733 5736 5739 5741 5743 5745 5747 5748 5750 5751
5602 5617 5629 5639 5649 5658 5666 5673 5680 5686 5691 5695 5697 5698 5699 5700 5701 5703 5705 5707 5709 5711 5713 5716 5718 5721 5723 5726 5729 5732 5735 5737 5739 5741 5743 5744 5746 5747
5586 5601 5615 5626 5637 5646 5655 5663 5670 5677 5683 5688 5690 5692 5694 5695 5697 5698 5700 5703 5705 5707 5709 5712 5714 5717 5720 5723 5726 5729 5732 5734 5736 5738 5739 5741 5742 5743
5574 5588 5602 5614 5625 5634 5643 5652 5661 5669 5675 5680 5684 5686 5688 5690 5692 5694 5696 5698 5701 5703 5705 5708 5710 5713 5717 5720 5723 5726 5729 5731 5733 5735 5736 5738 5738 5739
5565 5578 5591 5603 5614 5623 5633 5642 5651 5660 5667 5672 5676 5679 5682 5684 5687 5690 5692 5695 5697 5699 5702 5705 5708 5711 5714 5718 5721 5724 5726 5728 5730 5732 5733 5734 5734 5734
5557 5568 5581 5593 5604 5613 5623 5633 5643 5651 5658 5664 5669 5673 5676 5679 5682 5685 5688 5691 5694 5696 5699 5702 5705 5709 5712 5715 5718 5721 5723 5725 5727 5727 5728 5728 5728 5728
5549 5560 5572 5584 5594 5604 5615 5625 5634 5644 5651 5657 5662 5667 5670 5674 5677 5680 5684 5687 5691 5694 5697 5700 5703 5706 5709 5712 5715 5717 5719 5721 5722 5722 5722 5722 5721 5720
5544 5553 5564 5576 5587 5597 5607 5618 5627 5636 5643 5650 5656 5661 5665 5668 5672 5676 5680 5683 5687 5691 5694 5697 5700 5703 5706 5709 5711 5713 5714 5715 5716 5716 5716 5714 5713 5712
5539 5547 5558 5569 5579 5590 5601 5611 5621 5629 5636 5643 5650 5655 5659 5663 5667 5671 5676 5679 5683 5687 5690 5694 5697 5700 5702 5705 5707 5708 5709 5709 5709 5709 5708 5706 5705 5703
5533 5542 5552 5564 5574 5585 5595 5605 5614 5623 5631 5638 5644 5650 5654 5659 5663 5667 5671 5675 5679 5683 5686 5690 5692 5695 5698 5700 5701 5702 5702 5702 5701 5700 5699 5698 5696 5694
5530 5539 5549 5559 5571 5581 5591 5601 5610 5618 5626 5633 5639 5645 5650 5654 5658 5663 5667 5671 5675 5678 5682 5685 5687 5690 5692 5694 5695 5695 5695 5694 5693 5692 5691 5689 5687 5685
5529 5539 5549 5559 5570 5580 5589 5598 5607 5615 5622 5629 5635 5640 5645 5650 5654 5659 5663 5667 5671 5674 5678 5681 5683 5685 5686 5687 5687 5687 5687 5686 5685 5683 5682 5680 5677 5675
5531 5541 5550 5560 5570 5580 5588 5597 5605 5612 5619 5625 5631 5636 5641 5646 5651 5655 5659 5663 5667 5670 5673 5676 5678 5679 5680 5680 5680 5679 5679 5678 5676 5675 5673 5670 5668 5666